Regional Weather Roundup
Issued by NWS

Home | Current Version | Previous Version | Graphics & Text | Print | Product List | Glossary On
Versions: 1 2 3 4 5 6 7 8 9 10 11 12 13 14 15 16 17 18 19 20 21 22 23 24 25 26 27 28 29 30 31 32 33 34 35 36 37 38 39 40 41 42 43 44 45 46 47 48 49 50
000
ASUS43 KDMX 290007
RWRIA

WEATHER ROUNDUP FOR IOWA
NATIONAL WEATHER SERVICE DES MOINES IA
700 PM CDT THU AUG 28 2014

NOTE: "FAIR" INDICATES FEW OR NO CLOUDS BELOW 12,000 FEET WITH NO
SIGNIFICANT WEATHER AND/OR OBSTRUCTIONS TO VISIBILITY.

* - THESE STATIONS ARE NOT NWS STATIONS...THUS NOT UNDER NWS
QUALITY CONTROL.  THEY ALSO DO NOT REPORT WEATHER SUCH
AS PRECIPITATION OR FOG.

IAZ001>003-012>014-020>022-031>034-043>046-290100-
   NORTHWEST IOWA

CITY           SKY/WX    TMP DP  RH WIND       PRES   REMARKS
CARROLL *      PTSUNNY   75  72  88 SE5       29.88F
DENISON *      CLOUDY    77  75  94 SE3       29.85F
LE MARS *      CLOUDY    77  73  88 S5        29.84F
ORANGE CITY *  CLOUDY    75  72  88 CALM      29.85F
SHELDON *      PTSUNNY   72  70  94 E10       29.85F
SIOUX CITY     CLOUDY    78  72  81 SE7       29.82F HX  80
6HR MIN TEMP:  76; 6HR MAX TEMP:  82;

SPENCER        LGT RAIN  73  69  87 VRB5      29.88S
6HR MIN TEMP:  69; 6HR MAX TEMP:  73; 6HR PCP:  0.05;

STORM LAKE *   MOSUNNY   73  73 100 SE8       29.88S
$$

IAZ055>058-069>071-079>083-090>094-290100-
   SOUTHWEST IOWA

CITY           SKY/WX    TMP DP  RH WIND       PRES   REMARKS
ATLANTIC *     SUNNY     79  75  89 E3        29.85F HX  82
AUDUBON *      SUNNY     79  75  89 SE3       29.89F HX  82
CLARINDA *     CLOUDY    81  77  89 E6        29.85F HX  88
COUNCIL BLFS * PTSUNNY   79  77  94 SE6       29.85F HX  83
CRESTON *      PTCLDY    79  75  89 SE9       29.88F HX  82
HARLAN  *      SUNNY     79  75  89 SE7       29.90F HX  82
LAMONI         PTCLDY    79  73  82 E5        29.89F HX  82
6HR MIN TEMP:  75; 6HR MAX TEMP:  84;

RED OAK *      MOSUNNY   79  73  83 SE5       29.85F HX  82
SHENANDOAH *   CLOUDY    79  75  89 NW3G12    29.85F HX  82
$$

IAZ047>049-059>061-072>074-084-290100-
   CENTRAL IOWA

CITY           SKY/WX    TMP DP  RH WIND       PRES   REMARKS
AMES           MOCLDY    75  71  87 SE9       29.90F
6HR MIN TEMP:  71; 6HR MAX TEMP:  77;

ANKENY *       PTCLDY    75  73  94 SE6       29.89F
CHARITON *     CLEAR     77  73  88 SE6       29.91F
DES MOINES     MOCLDY    78  72  81 E9        29.89F HX  80
6HR MIN TEMP:  72; 6HR MAX TEMP:  81;

GRINNELL*      MOCLDY    73  70  88 SE9       29.93F
KNOXVILLE *    PTCLDY    73  70  88 SE5       29.90F
MARSHALLTOWN   CLOUDY    73  69  87 SE8       29.92F
6HR MIN TEMP:  67; 6HR MAX TEMP:  74; 6HR PCP: TRACE;

PELLA *        MOCLDY    73  70  89 SE3       29.93S
PERRY *          N/A     77  73  88 SE5       29.89F
$$

IAZ004>006-015-016-023>025-035-036-290100-
   NORTH CENTRAL IOWA

CITY           SKY/WX    TMP DP  RH WIND       PRES   REMARKS
ALGONA *       CLOUDY    73  72  94 SE7       29.90F
CLARION *      CLOUDY    73  72  94 S7        29.91F
ESTHERVILLE    LGT RAIN  66  66 100 E8        29.89F FOG
6HR MIN TEMP:  66; 6HR MAX TEMP:  68; 6HR PCP:  0.23;

FORT DODGE *   MOCLDY    75  70  83 SE7       29.90F
MASON CITY     LGT RAIN  70  69  97 S9        29.94F
6HR MIN TEMP:  65; 6HR MAX TEMP:  70; 6HR PCP:  0.34;

FOREST CITY *  LGT RAIN  70  70 100 SE8       29.92F
IOWA FALLS *   CLOUDY    73  68  87 SE6       29.93F
$$

IAZ007>011-017>019-026>030-037>042-050>054-066-290100-
   NORTHEAST IOWA

CITY           SKY/WX    TMP DP  RH WIND       PRES   REMARKS
CEDAR RAPIDS   CLOUDY    71  69  93 SE8       29.94F
6HR MIN TEMP:  66; 6HR MAX TEMP:  73; 6HR PCP:  0.03;

CHARLES CITY * CLOUDY    70  68  94 SE7       29.94F FOG
CLINTON *      CLOUDY    70  66  88 SE12      30.01S
DECORAH *      CLOUDY    68  66  94 VRB6      29.95F
DUBUQUE        MOCLDY    69  65  86 SE10      29.98F
6HR MIN TEMP:  69; 6HR MAX TEMP:  71; 6HR PCP: TRACE;

MONTICELLO *   CLOUDY    70  68  94 VRB7G16   29.96F
OELWEIN *      CLOUDY    70  66  88 SE12      29.96F
WATERLOO       MOCLDY    71  66  84 SE10      29.92F
6HR MIN TEMP:  67; 6HR MAX TEMP:  72;

$$

IAZ064-065-067-068-078-290100-
   EAST CENTRAL IOWA

CITY           SKY/WX    TMP DP  RH WIND       PRES   REMARKS
DAVENPORT      CLOUDY    69  66  90 SE12      29.98F
6HR MIN TEMP:  67; 6HR MAX TEMP:  70; 6HR PCP:  0.45;

IOWA CITY      CLOUDY    70  69  97 SE7       29.95F
6HR MIN TEMP:  66; 6HR MAX TEMP:  71; 6HR PCP:  0.25;

MT. PLEASANT * CLOUDY    70  70 100 E8        29.94F
MUSCATINE *    CLEAR     70  68  94 CALM      29.95F
QUAD CITIES    LGT RAIN  69  67  93 E12       29.97F
6HR MIN TEMP:  68; 6HR MAX TEMP:  72; 6HR PCP:  1.93;

$$

IAZ062-063-075>077-085>089-095>099-290100-
   SOUTHEAST IOWA

CITY           SKY/WX    TMP DP  RH WIND       PRES   REMARKS
BURLINGTON     CLOUDY    71  70  96 E8        29.94F
6HR MIN TEMP:  69; 6HR MAX TEMP:  83; 6HR PCP:  1.38;

FAIRFIELD *    CLEAR     72  70  94 SE10      29.93F
FORT MADISON * PTCLDY    72  72 100 E6        29.95F
KEOKUK *       CLEAR     73  72  94 E8        29.93F
OSKALOOSA *      N/A     72  70  93 SE5       29.93F
CENTERVILLE *  CLEAR     75  75 100 E5        29.94F
OTTUMWA        MOCLDY    72  69  90 SE7       29.92F
6HR MIN TEMP:  66; 6HR MAX TEMP:  74; 6HR PCP:  0.16;

WASHINGTON *   PTCLDY    70  70 100 SE8       29.94F
$$

ABBREVIATIONS USED IN REMARKS
   TC - TEMPERATURES IN CELSIUS
  WCI - WIND CHILL INDEX
   HX - HEAT INDEX
  VSB - VISIBILITY
$$



USA.gov is the U.S. government's official web portal to all federal, state and local government web resources and services.